| time (UTC) | temp C | wind direction | speed KPH | gust KPH | rain 1hr cm | rain 24hr cm | rain mn cm | humidity % | barometer mb |
| 20260508110015 | 7 | 194 | 0.0 | 3.2 | 0.03 | 0.03 | 0.03 | 83 | 1011.6 |
| 20260508104514 | 7 | 194 | 0.0 | 1.6 | 0.03 | 0.03 | 0.03 | 82 | 1011.4 |
| 20260508103011 | 7 | 188 | 0.0 | 1.6 | 0.03 | 0.03 | 0.03 | 81 | 1011.6 |
| 20260508101510 | 7 | 180 | 0.0 | 3.2 | 0.00 | 0.00 | 0.00 | 81 | 1011.7 |
| 20260508100009 | 7 | 182 | 0.0 | 0.0 | 0.00 | 0.00 | 0.00 | 82 | 1011.3 |
| 20260508094511 | 6 | 182 | 0.0 | 0.0 | 0.00 | 0.00 | 0.00 | 82 | 1011.4 |
| 20260508093014 | 6 | 182 | 0.0 | 0.0 | 0.00 | 0.00 | 0.00 | 81 | 1011.6 |
| 20260508091506 | 7 | 182 | 0.0 | 1.6 | 0.00 | 0.00 | 0.00 | 81 | 1011.7 |
| 20260508090012 | 7 | 177 | 0.0 | 3.2 | 0.00 | 0.00 | 0.00 | 81 | 1011.8 |
| 20260508084504 | 7 | 175 | 0.0 | 1.6 | 0.00 | 0.00 | 0.00 | 81 | 1011.9 |
| 20260508083003 | 7 | 170 | 0.0 | 3.2 | 0.00 | 0.00 | 0.00 | 81 | 1011.8 |
| 20260508081501 | 7 | 178 | 0.0 | 0.0 | 0.00 | 0.00 | 0.00 | 80 | 1011.8 |
| 20260508080104 | 7 | 177 | 0.0 | 1.6 | 0.00 | 0.00 | 0.00 | 79 | 1011.9 |
| 20260508074558 | 7 | 175 | 0.0 | 6.4 | 0.00 | 0.00 | 0.00 | 78 | 1012.0 |
| 20260508073056 | 7 | 202 | 0.0 | 4.8 | 0.00 | 0.00 | 0.00 | 76 | 1012.1 |
| 20260508071555 | 8 | 209 | 0.0 | 4.8 | 0.00 | 0.00 | 0.00 | 75 | 1012.2 |
| 20260508070054 | 8 | 241 | 0.0 | 9.7 | 0.00 | 0.00 | 0.00 | 72 | 1012.2 |
| 20260508064550 | 8 | 210 | 3.2 | 17.7 | 0.00 | 0.00 | 0.00 | 70 | 1012.0 |
| 20260508063050 | 7 | 182 | 0.0 | 6.4 | 0.00 | 0.00 | 0.00 | 70 | 1012.2 |
| 20260508061547 | 7 | 171 | 0.0 | 4.8 | 0.00 | 0.00 | 0.00 | 71 | 1012.2 |
| 20260508060046 | 7 | 188 | 0.0 | 1.6 | 0.00 | 0.00 | 0.00 | 71 | 1012.2 |
| 20260508054545 | 7 | 188 | 0.0 | 0.0 | 0.00 | 0.00 | 0.00 | 71 | 1012.3 |
| 20260508053047 | 7 | 188 | 0.0 | 3.2 | 0.00 | 0.00 | 0.00 | 70 | 1012.5 |
| 20260508051541 | 8 | 188 | 0.0 | 0.0 | 0.00 | 0.00 | 0.00 | 70 | 1012.7 |
| 20260508050040 | 8 | 188 | 0.0 | 0.0 | 0.00 | 0.00 | 0.00 | 70 | 1012.7 |
| 20260508044540 | 8 | 188 | 0.0 | 3.2 | 0.00 | 0.00 | 0.00 | 69 | 1012.8 |
| 20260508043044 | 8 | 188 | 0.0 | 3.2 | 0.00 | 0.00 | 0.00 | 69 | 1012.8 |
| 20260508041538 | 8 | 189 | 0.0 | 3.2 | 0.00 | 0.00 | 0.00 | 70 | 1012.7 |
| 20260508040036 | 7 | 188 | 0.0 | 3.2 | 0.00 | 0.00 | 0.00 | 70 | 1012.7 |
| 20260508034534 | 7 | 198 | 0.0 | 3.2 | 0.00 | 0.00 | 0.00 | 70 | 1012.8 |
| 20260508033036 | 7 | 198 | 0.0 | 4.8 | 0.00 | 0.00 | 0.00 | 71 | 1013.0 |
| 20260508031534 | 6 | 236 | 0.0 | 3.2 | 0.00 | 0.00 | 0.00 | 74 | 1012.9 |
| 20260508030037 | 5 | 325 | 0.0 | 0.0 | 0.00 | 0.00 | 0.00 | 77 | 1013.0 |
| 20260508024538 | 6 | 325 | 0.0 | 0.0 | 0.00 | 0.00 | 0.00 | 74 | 1013.0 |
| 20260508023033 | 6 | 325 | 0.0 | 0.0 | 0.00 | 0.00 | 0.00 | 72 | 1012.9 |
| 20260508021533 | 6 | 325 | 0.0 | 0.0 | 0.00 | 0.00 | 0.00 | 71 | 1012.8 |
| 20260508020027 | 6 | 325 | 0.0 | 0.0 | 0.00 | 0.00 | 0.00 | 69 | 1012.6 |
| 20260508014514 | 7 | 325 | 0.0 | 0.0 | 0.00 | 0.00 | 0.00 | 66 | 1012.6 |
| 20260508013022 | 7 | 325 | 0.0 | 0.0 | 0.00 | 0.00 | 0.00 | 63 | 1012.5 |
| 20260508011515 | 8 | 325 | 0.0 | 0.0 | 0.00 | 0.00 | 0.00 | 60 | 1012.4 |
| 20260508010016 | 8 | 325 | 0.0 | 0.0 | 0.00 | 0.00 | 0.00 | 59 | 1012.3 |
| 20260508004522 | 9 | 325 | 0.0 | 0.0 | 0.00 | 0.00 | 0.00 | 56 | 1012.3 |
| 20260508003012 | 10 | 325 | 0.0 | 0.0 | 0.00 | 0.00 | 0.00 | 52 | 1012.3 |
| 20260508001517 | 10 | 325 | 0.0 | 0.0 | 0.00 | 0.00 | 0.00 | 52 | 1012.2 |
| 20260508000012 | 10 | 325 | 0.0 | 1.6 | 0.00 | 0.00 | 0.00 | 51 | 1012.1 |
| 20260507234511 | 10 | 283 | 0.0 | 1.6 | 0.00 | 0.00 | 0.00 | 50 | 1011.9 |
| 20260507233015 | 11 | 26 | 0.0 | 9.7 | 0.00 | 0.00 | 0.00 | 50 | 1011.9 |
| 20260507231510 | 11 | 44 | 0.0 | 3.2 | 0.00 | 0.00 | 0.00 | 48 | 1011.9 |
| 20260507230010 | 11 | 285 | 0.0 | 1.6 | 0.00 | 0.00 | 0.00 | 49 | 1012.1 |
| 20260507224509 | 11 | 360 | 0.0 | 4.8 | 0.00 | 0.00 | 0.00 | 48 | 1012.2 |
| 20260507223009 | 11 | 336 | 0.0 | 3.2 | 0.00 | 0.00 | 0.00 | 48 | 1012.0 |
| 20260507221516 | 11 | 51 | 0.0 | 4.8 | 0.00 | 0.00 | 0.00 | 48 | 1012.1 |
| 20260507220011 | 11 | 30 | 0.0 | 11.3 | 0.00 | 0.00 | 0.00 | 51 | 1011.9 |
| 20260507214509 | 11 | 105 | 0.0 | 4.8 | 0.00 | 0.00 | 0.00 | 50 | 1011.8 |
| 20260507213008 | 11 | 296 | 0.0 | 4.8 | 0.00 | 0.00 | 0.00 | 53 | 1011.8 |
| 20260507211506 | 12 | 309 | 0.0 | 4.8 | 0.00 | 0.00 | 0.00 | 55 | 1011.8 |
| 20260507210016 | 11 | 342 | 1.6 | 9.7 | 0.00 | 0.00 | 0.00 | 57 | 1011.6 |
| 20260507204505 | 11 | 325 | 1.6 | 6.4 | 0.00 | 0.00 | 0.00 | 57 | 1011.5 |
| 20260507203008 | 11 | 331 | 0.0 | 3.2 | 0.00 | 0.00 | 0.00 | 56 | 1011.3 |
| 20260507201508 | 12 | 273 | 0.0 | 4.8 | 0.00 | 0.00 | 0.00 | 51 | 1011.4 |
| 20260507200003 | 12 | 100 | 1.6 | 6.4 | 0.00 | 0.00 | 0.00 | 50 | 1011.1 |
| 20260507194503 | 12 | 241 | 3.2 | 12.9 | 0.00 | 0.00 | 0.00 | 50 | 1011.4 |
| 20260507193004 | 13 | 346 | 1.6 | 4.8 | 0.00 | 0.00 | 0.00 | 47 | 1011.5 |
| 20260507191601 | 13 | 225 | 0.0 | 14.5 | 0.00 | 0.00 | 0.00 | 47 | 1011.5 |
| 20260507190100 | 14 | 170 | 0.0 | 14.5 | 0.00 | 0.00 | 0.00 | 49 | 1011.6 |
| 20260507184606 | 13 | 293 | 4.8 | 16.1 | 0.00 | 0.00 | 0.00 | 48 | 1011.6 |
| 20260507183058 | 14 | 265 | 0.0 | 12.9 | 0.00 | 0.00 | 0.00 | 50 | 1011.7 |
| 20260507181557 | 12 | 209 | 1.6 | 6.4 | 0.00 | 0.00 | 0.00 | 54 | 1011.8 |
| 20260507174556 | 12 | 209 | 0.0 | 6.4 | 0.00 | 0.00 | 0.00 | 53 | 1011.8 |
| 20260507173054 | 13 | 355 | 0.0 | 3.2 | 0.00 | 0.00 | 0.00 | 51 | 1011.8 |
| 20260507171553 | 13 | 256 | 0.0 | 3.2 | 0.00 | 0.00 | 0.00 | 55 | 1012.0 |
| 20260507170053 | 13 | 193 | 0.0 | 1.6 | 0.00 | 0.00 | 0.00 | 51 | 1011.9 |
| 20260507164551 | 14 | 229 | 0.0 | 12.9 | 0.00 | 0.00 | 0.00 | 50 | 1012.0 |
| 20260507163049 | 13 | 229 | 1.6 | 8.0 | 0.00 | 0.00 | 0.00 | 51 | 1012.0 |
| 20260507161548 | 13 | 249 | 0.0 | 12.9 | 0.00 | 0.00 | 0.00 | 53 | 1012.1 |
| 20260507160045 | 13 | 298 | 3.2 | 17.7 | 0.00 | 0.00 | 0.00 | 53 | 1012.3 |
| 20260507154542 | 12 | 284 | 0.0 | 4.8 | 0.00 | 0.00 | 0.00 | 55 | 1012.2 |
| 20260507153043 | 12 | 133 | 0.0 | 6.4 | 0.00 | 0.00 | 0.00 | 52 | 1012.3 |
| 20260507151536 | 12 | 127 | 1.6 | 12.9 | 0.00 | 0.00 | 0.00 | 56 | 1012.3 |
| 20260507150034 | 12 | 196 | 4.8 | 12.9 | 0.00 | 0.00 | 0.00 | 57 | 1012.4 |
| 20260507144529 | 11 | 259 | 1.6 | 8.0 | 0.00 | 0.00 | 0.00 | 62 | 1012.4 |
| 20260507143026 | 11 | 17 | 0.0 | 4.8 | 0.00 | 0.00 | 0.00 | 62 | 1012.3 |
| 20260507141522 | 10 | 215 | 0.0 | 1.6 | 0.00 | 0.00 | 0.00 | 63 | 1012.4 |
| 20260507140019 | 10 | 204 | 0.0 | 6.4 | 0.00 | 0.00 | 0.00 | 68 | 1012.5 |
| 20260507134515 | 8 | 205 | 0.0 | 1.6 | 0.00 | 0.00 | 0.00 | 68 | 1012.7 |
| 20260507133012 | 8 | 205 | 0.0 | 3.2 | 0.00 | 0.00 | 0.00 | 72 | 1012.7 |
| 20260507131516 | 8 | 202 | 0.0 | 6.4 | 0.00 | 0.00 | 0.00 | 75 | 1012.9 |
| 20260507130012 | 7 | 190 | 0.0 | 6.4 | 0.00 | 0.00 | 0.00 | 79 | 1012.9 |
| 20260507124502 | 7 | 188 | 0.0 | 3.2 | 0.00 | 0.00 | 0.00 | 82 | 1012.9 |
| 20260507123058 | 6 | 186 | 0.0 | 3.2 | 0.00 | 0.00 | 0.00 | 85 | 1012.9 |
| 20260507121555 | 6 | 185 | 0.0 | 3.2 | 0.00 | 0.00 | 0.00 | 87 | 1012.8 |
| 20260507120053 | 5 | 182 | 0.0 | 3.2 | 0.00 | 0.00 | 0.00 | 89 | 1012.6 |
| 20260507114550 | 5 | 180 | 0.0 | 4.8 | 0.00 | 0.00 | 0.00 | 90 | 1012.7 |
| 20260507113047 | 3 | 42 | 0.0 | 0.0 | 0.00 | 0.00 | 0.00 | 89 | 1012.7 |
| 20260507111547 | 3 | 40 | 0.0 | 0.0 | 0.00 | 0.00 | 0.00 | 89 | 1012.7 |